Location: Paris
(48.6709°N, 2.3750°E)
Time: 09:03:26
(UTC+02:00)

KKS-1 - Pass Details

Date: 09 July 2022
Orbit: 635 x 648 km, 98.2° (Epoch: 08 August)

Event Time Altitude Azimuth Distance (km) Brightness Sun altitude
Rises 23:42:23 0° 17° (NNE) 2,973 ? -13.0°
Reaches altitude 10° 23:44:39 10° 22° (NNE) 2,056 ? -13.2°
Maximum altitude 23:49:03 57° 101° (E) 765 ? -13.6°
Enters shadow 23:52:05 19° 175° (S) 1,512 ? -13.9°
